| time (UTC) | temp C | wind direction | speed KPH | gust KPH | rain 1hr cm | rain 24hr cm | rain mn cm | humidity % | barometer mb |
| 20260502151605 | 11 | 0 | 0.0 | 4.8 | 0.00 | 0.00 | 0.00 | 46 | 1022.0 |
| 20260502123057 | 2 | 0 | 0.0 | 0.0 | 0.00 | 0.00 | 0.00 | 72 | 1021.8 |
| 20260502121556 | 2 | 0 | 0.0 | 1.6 | 0.00 | 0.00 | 0.00 | 71 | 1021.8 |
| 20260502114557 | 1 | 0 | 0.0 | 0.0 | 0.00 | 0.00 | 0.00 | 71 | 1021.6 |
| 20260502113057 | 1 | 0 | 0.0 | 3.2 | 0.00 | 0.00 | 0.00 | 70 | 1021.6 |
| 20260502111606 | 2 | 231 | 1.6 | 6.4 | 0.00 | 0.00 | 0.00 | 68 | 1021.6 |
| 20260502110058 | 2 | 0 | 0.0 | 3.2 | 0.00 | 0.00 | 0.00 | 66 | 1021.5 |
| 20260502104555 | 2 | 289 | 1.6 | 3.2 | 0.00 | 0.00 | 0.00 | 64 | 1021.4 |
| 20260502103057 | 2 | 0 | 0.0 | 0.0 | 0.00 | 0.00 | 0.00 | 64 | 1021.3 |
| 20260502101556 | 2 | 0 | 0.0 | 1.6 | 0.00 | 0.00 | 0.00 | 63 | 1021.4 |
| 20260502090114 | 3 | 0 | 0.0 | 0.0 | 0.00 | 0.00 | 0.00 | 62 | 1021.1 |
| 20260502070107 | 5 | 0 | 0.0 | 0.0 | 0.00 | 0.00 | 0.00 | 55 | 1021.3 |
| 20260502064558 | 5 | 0 | 0.0 | 0.0 | 0.00 | 0.00 | 0.00 | 54 | 1021.3 |
| 20260502063057 | 5 | 0 | 0.0 | 0.0 | 0.00 | 0.00 | 0.00 | 54 | 1021.2 |
| 20260502061555 | 6 | 0 | 0.0 | 0.0 | 0.00 | 0.00 | 0.00 | 51 | 1021.3 |
| 20260502060058 | 6 | 0 | 0.0 | 0.0 | 0.00 | 0.00 | 0.00 | 51 | 1021.2 |
| 20260502054556 | 6 | 0 | 0.0 | 0.0 | 0.00 | 0.00 | 0.00 | 50 | 1021.0 |
| 20260502053119 | 6 | 0 | 0.0 | 0.0 | 0.00 | 0.00 | 0.00 | 49 | 1021.0 |
| 20260502051607 | 6 | 0 | 0.0 | 0.0 | 0.00 | 0.00 | 0.00 | 49 | 1021.0 |
| 20260502050057 | 7 | 0 | 0.0 | 0.0 | 0.00 | 0.00 | 0.00 | 48 | 1020.9 |
| 20260502044557 | 7 | 0 | 0.0 | 0.0 | 0.00 | 0.00 | 0.00 | 48 | 1020.7 |
| 20260502043112 | 7 | 0 | 0.0 | 0.0 | 0.00 | 0.00 | 0.00 | 48 | 1020.7 |
| 20260502041631 | 7 | 0 | 0.0 | 0.0 | 0.00 | 0.00 | 0.00 | 47 | 1020.6 |
| 20260502040059 | 7 | 0 | 0.0 | 0.0 | 0.00 | 0.00 | 0.00 | 48 | 1020.7 |
| 20260502034556 | 8 | 0 | 0.0 | 0.0 | 0.00 | 0.00 | 0.00 | 47 | 1020.7 |
| 20260502033106 | 8 | 0 | 0.0 | 0.0 | 0.00 | 0.00 | 0.00 | 47 | 1020.6 |
| 20260502031558 | 8 | 0 | 0.0 | 0.0 | 0.00 | 0.00 | 0.00 | 46 | 1020.6 |
| 20260502030057 | 8 | 0 | 0.0 | 0.0 | 0.00 | 0.00 | 0.00 | 45 | 1020.4 |
| 20260502024557 | 8 | 0 | 0.0 | 0.0 | 0.00 | 0.00 | 0.00 | 44 | 1020.3 |
| 20260502023059 | 8 | 0 | 0.0 | 0.0 | 0.00 | 0.00 | 0.00 | 44 | 1020.1 |
| 20260502021556 | 9 | 0 | 0.0 | 6.4 | 0.00 | 0.00 | 0.00 | 43 | 1020.0 |
| 20260502020106 | 9 | 354 | 0.0 | 1.6 | 0.00 | 0.00 | 0.00 | 43 | 1019.8 |
| 20260502014557 | 10 | 2 | 1.6 | 12.9 | 0.00 | 0.00 | 0.00 | 42 | 1019.7 |
| 20260502013056 | 10 | 359 | 1.6 | 11.3 | 0.00 | 0.00 | 0.00 | 39 | 1019.6 |
| 20260502011600 | 11 | 0 | 1.6 | 12.9 | 0.00 | 0.00 | 0.00 | 38 | 1019.4 |
| 20260502004600 | 11 | 0 | 1.6 | 17.7 | 0.00 | 0.00 | 0.00 | 36 | 1019.1 |
| 20260502003056 | 11 | 346 | 3.2 | 24.1 | 0.00 | 0.00 | 0.00 | 35 | 1019.1 |
| 20260502001604 | 12 | 336 | 4.8 | 17.7 | 0.00 | 0.00 | 0.00 | 34 | 1019.1 |
| 20260502000056 | 12 | 340 | 4.8 | 19.3 | 0.00 | 0.00 | 0.00 | 34 | 1018.9 |
| 20260501234600 | 12 | 3 | 4.8 | 24.1 | 0.00 | 0.00 | 0.00 | 33 | 1019.0 |
| 20260501233106 | 13 | 0 | 4.8 | 20.9 | 0.00 | 0.00 | 0.00 | 34 | 1018.9 |
| 20260501231624 | 12 | 358 | 4.8 | 29.0 | 0.00 | 0.00 | 0.00 | 33 | 1018.9 |
| 20260501230058 | 13 | 342 | 4.8 | 22.5 | 0.00 | 0.00 | 0.00 | 33 | 1018.8 |
| 20260501224555 | 13 | 0 | 6.4 | 27.4 | 0.00 | 0.00 | 0.00 | 34 | 1018.8 |
| 20260501223119 | 13 | 350 | 3.2 | 25.7 | 0.00 | 0.00 | 0.00 | 34 | 1018.7 |
| 20260501221558 | 13 | 0 | 4.8 | 25.7 | 0.00 | 0.00 | 0.00 | 33 | 1018.6 |
| 20260501220058 | 14 | 334 | 3.2 | 22.5 | 0.00 | 0.00 | 0.00 | 33 | 1018.6 |
| 20260501214557 | 13 | 345 | 9.7 | 30.6 | 0.00 | 0.00 | 0.00 | 33 | 1018.6 |
| 20260501213100 | 13 | 331 | 3.2 | 27.4 | 0.00 | 0.00 | 0.00 | 34 | 1018.6 |
| 20260501211555 | 13 | 329 | 6.4 | 24.1 | 0.00 | 0.00 | 0.00 | 33 | 1018.6 |
| 20260501210059 | 13 | 335 | 9.7 | 32.2 | 0.00 | 0.00 | 0.00 | 32 | 1018.8 |
| 20260501204620 | 14 | 338 | 6.4 | 25.7 | 0.00 | 0.00 | 0.00 | 32 | 1018.9 |
| 20260501203057 | 14 | 340 | 4.8 | 22.5 | 0.00 | 0.00 | 0.00 | 36 | 1019.0 |
| 20260501201604 | 13 | 17 | 6.4 | 27.4 | 0.00 | 0.00 | 0.00 | 37 | 1019.3 |
| 20260501200059 | 13 | 344 | 8.0 | 27.4 | 0.00 | 0.00 | 0.00 | 37 | 1019.3 |
| 20260501194605 | 13 | 336 | 3.2 | 19.3 | 0.00 | 0.00 | 0.00 | 39 | 1019.2 |
| 20260501193056 | 14 | 336 | 6.4 | 22.5 | 0.00 | 0.00 | 0.00 | 40 | 1019.3 |
| 20260501191602 | 13 | 328 | 4.8 | 27.4 | 0.00 | 0.00 | 0.00 | 40 | 1019.3 |
| 20260501190054 | 13 | 341 | 4.8 | 20.9 | 0.00 | 0.00 | 0.00 | 42 | 1019.3 |
| 20260501184603 | 13 | 339 | 6.4 | 22.5 | 0.00 | 0.00 | 0.00 | 41 | 1019.2 |
| 20260501183103 | 13 | 344 | 8.0 | 29.0 | 0.00 | 0.00 | 0.00 | 43 | 1019.3 |
| 20260501181609 | 13 | 340 | 3.2 | 27.4 | 0.00 | 0.00 | 0.00 | 46 | 1019.3 |
| 20260501174609 | 13 | 334 | 8.0 | 24.1 | 0.00 | 0.00 | 0.00 | 48 | 1019.6 |
| 20260501173058 | 12 | 0 | 8.0 | 27.4 | 0.00 | 0.00 | 0.00 | 49 | 1019.4 |
| 20260501171557 | 12 | 334 | 4.8 | 24.1 | 0.00 | 0.00 | 0.00 | 50 | 1019.6 |
| 20260501170056 | 12 | 8 | 6.4 | 22.5 | 0.00 | 0.00 | 0.00 | 52 | 1019.6 |
| 20260501164555 | 12 | 338 | 4.8 | 22.5 | 0.00 | 0.00 | 0.00 | 56 | 1019.6 |
| 20260501163057 | 11 | 322 | 6.4 | 27.4 | 0.00 | 0.00 | 0.00 | 55 | 1019.6 |
| 20260501161605 | 11 | 338 | 11.3 | 27.4 | 0.00 | 0.00 | 0.00 | 57 | 1019.6 |
| 20260501154601 | 10 | 337 | 3.2 | 20.9 | 0.00 | 0.00 | 0.00 | 64 | 1019.6 |
| 20260501153057 | 11 | 334 | 3.2 | 17.7 | 0.00 | 0.00 | 0.00 | 63 | 1019.5 |